Regional Weather Roundup
Issued by NWS

Home | Current Version | Previous Version | Text Only | Print | Product List | Glossary Off
Versions: 1 2 3 4 5 6 7 8 9 10 11 12 13 14 15 16 17 18 19 20 21 22 23 24 25 26 27 28 29 30 31 32 33 34 35 36 37 38 39 40 41 42 43 44 45 46 47 48 49 50

000
ASUS44 KMEG 091800
RWRTN
TENNESSEE HOURLY STATE WEATHER ROUNDUP
NATIONAL WEATHER SERVICE MEMPHIS TN
1200 PM CST TUE FEB 09 2016

TNZ002-004-019-021-049-052-054-088>092-091900-
WEST TENNESSEE

CITY           SKY/WX    TMP DP  RH WIND       PRES   REMARKS
MEMPHIS INTL   PTSUNNY   39  14  36 N16G30    30.02S WCI  30
NWS MEMPHIS      N/A     34 N/A N/A MISG        N/A
JACKSON        CLOUDY    27  22  81 N10       30.01S WCI  17
DYERSBURG      CLOUDY    28  14  54 NW12      30.04S WCI  18
UNION CITY     CLOUDY    25  19  80 NW9       30.00R WCI  15
PARIS          CLOUDY    21  16  79 VRB6      29.97S WCI  14
$$

TNZ008-025-027-028-033-062-065-066-091900-
NORTH MIDDLE TENNESSEE

CITY           SKY/WX    TMP DP  RH WIND       PRES   REMARKS
NASHVILLE      LGT SNOW  27  20  75 W12       29.92S VSB 3/4 WCI  17
CLARKSVILLE    FLURRIES  23  16  74 NW12      29.94S WCI  12
COOKEVILLE     CLOUDY    27  19  74 N5        29.84F WCI  21
CROSSVILLE     FLURRIES  23  13  65 W12       29.79S WCI  12
$$

TNZ061-075-076-078-094-096-097-091900-
SOUTH MIDDLE TENNESSEE

CITY           SKY/WX    TMP DP  RH WIND       PRES   REMARKS
TULLAHOMA      PTSUNNY   25  23  93 NW14      29.87S WCI  13
WINCHESTER     CLOUDY    27  21  80 VRB7      29.87S WCI  19
MCMINNVILLE    MOSUNNY   25  21  86 NW7       29.85F WCI  17
COLUMBIA       CLOUDY    27  21  80 NW7       29.92S WCI  19
SHELBYVILLE    PTSUNNY   28  21  74 W13       29.90S WCI  18
$$

TNZ017-018-042-046-047-091900-
NORTHEAST TENNESSEE

CITY           SKY/WX    TMP DP  RH WIND       PRES   REMARKS
TRI CITIES     LGT SNOW  23  16  74 W16       29.74F WCI  10
$$

TNZ012-013-036-069-073-074-091900-
CENTRAL EAST TENNESSEE

CITY           SKY/WX    TMP DP  RH WIND       PRES   REMARKS
KNOXVILLE      FLURRIES  28  17  63 W10       29.83F WCI  19
OAK RIDGE      CLOUDY    28  16  60 VRB6      29.84F WCI  22
GATLINBURG     CLOUDY    27  12  54 W10       29.81F WCI  17
$$

TNZ083-085-099-091900-
SOUTHEAST TENNESSEE

CITY           SKY/WX    TMP DP  RH WIND       PRES   REMARKS
CHATTANOOGA    FLURRIES  32  20  61 W14       29.86F WCI  22
$$

SKY/WX REPORTED AS FAIR MEANS FEW OR NO CLOUDS BELOW
12 THOUSAND FEET.




USA.gov is the U.S. government's official web portal to all federal, state and local government web resources and services.